Index of /20260418/WXO-DD/model_gdps/15km/00/030
Name Last modified Size Description
Parent Directory -
20260418T00Z_MSC_GDPS_AbsoluteVorticity_IsbL-0200_LatLon0.15_PT030H.grib2 2026-04-18 04:01 1.5M
20260418T00Z_MSC_GDPS_AbsoluteVorticity_IsbL-0250_LatLon0.15_PT030H.grib2 2026-04-18 04:01 1.3M
20260418T00Z_MSC_GDPS_AbsoluteVorticity_IsbL-0500_LatLon0.15_PT030H.grib2 2026-04-18 04:01 1.5M
20260418T00Z_MSC_GDPS_AbsoluteVorticity_IsbL-0700_LatLon0.15_PT030H.grib2 2026-04-18 04:01 1.6M
20260418T00Z_MSC_GDPS_AbsoluteVorticity_IsbL-0850_LatLon0.15_PT030H.grib2 2026-04-18 04:01 1.6M
20260418T00Z_MSC_GDPS_AirTemp-Max_AGL-2m_LatLon0.15_PT030H.grib2 2026-04-18 04:01 742K
20260418T00Z_MSC_GDPS_AirTemp-Min_AGL-2m_LatLon0.15_PT030H.grib2 2026-04-18 04:01 906K
20260418T00Z_MSC_GDPS_AirTemp_AGL-120m_LatLon0.15_PT030H.grib2 2026-04-18 04:01 902K
20260418T00Z_MSC_GDPS_AirTemp_AGL-2m_LatLon0.15_PT030H.grib2 2026-04-18 04:01 1.0M
20260418T00Z_MSC_GDPS_AirTemp_AGL-40m_LatLon0.15_PT030H.grib2 2026-04-18 04:01 923K
20260418T00Z_MSC_GDPS_AirTemp_AGL-80m_LatLon0.15_PT030H.grib2 2026-04-18 04:01 911K
20260418T00Z_MSC_GDPS_AirTemp_IsbL-0001_LatLon0.15_PT030H.grib2 2026-04-18 04:01 653K
20260418T00Z_MSC_GDPS_AirTemp_IsbL-0005_LatLon0.15_PT030H.grib2 2026-04-18 04:01 691K
20260418T00Z_MSC_GDPS_AirTemp_IsbL-0010_LatLon0.15_PT030H.grib2 2026-04-18 04:01 761K
20260418T00Z_MSC_GDPS_AirTemp_IsbL-0020_LatLon0.15_PT030H.grib2 2026-04-18 04:01 699K
20260418T00Z_MSC_GDPS_AirTemp_IsbL-0030_LatLon0.15_PT030H.grib2 2026-04-18 04:01 751K
20260418T00Z_MSC_GDPS_AirTemp_IsbL-0050_LatLon0.15_PT030H.grib2 2026-04-18 04:01 815K
20260418T00Z_MSC_GDPS_AirTemp_IsbL-0100_LatLon0.15_PT030H.grib2 2026-04-18 04:01 949K
20260418T00Z_MSC_GDPS_AirTemp_IsbL-0150_LatLon0.15_PT030H.grib2 2026-04-18 04:01 1.0M
20260418T00Z_MSC_GDPS_AirTemp_IsbL-0175_LatLon0.15_PT030H.grib2 2026-04-18 04:01 967K
20260418T00Z_MSC_GDPS_AirTemp_IsbL-0200_LatLon0.15_PT030H.grib2 2026-04-18 04:01 1.0M
20260418T00Z_MSC_GDPS_AirTemp_IsbL-0225_LatLon0.15_PT030H.grib2 2026-04-18 04:01 1.0M
20260418T00Z_MSC_GDPS_AirTemp_IsbL-0250_LatLon0.15_PT030H.grib2 2026-04-18 04:01 1.0M
20260418T00Z_MSC_GDPS_AirTemp_IsbL-0275_LatLon0.15_PT030H.grib2 2026-04-18 04:01 1.0M
20260418T00Z_MSC_GDPS_AirTemp_IsbL-0300_LatLon0.15_PT030H.grib2 2026-04-18 04:01 1.0M
20260418T00Z_MSC_GDPS_AirTemp_IsbL-0350_LatLon0.15_PT030H.grib2 2026-04-18 04:01 923K
20260418T00Z_MSC_GDPS_AirTemp_IsbL-0400_LatLon0.15_PT030H.grib2 2026-04-18 04:01 937K
20260418T00Z_MSC_GDPS_AirTemp_IsbL-0450_LatLon0.15_PT030H.grib2 2026-04-18 04:01 959K
20260418T00Z_MSC_GDPS_AirTemp_IsbL-0500_LatLon0.15_PT030H.grib2 2026-04-18 04:01 1.0M
20260418T00Z_MSC_GDPS_AirTemp_IsbL-0550_LatLon0.15_PT030H.grib2 2026-04-18 04:01 1.0M
20260418T00Z_MSC_GDPS_AirTemp_IsbL-0600_LatLon0.15_PT030H.grib2 2026-04-18 04:01 891K
20260418T00Z_MSC_GDPS_AirTemp_IsbL-0650_LatLon0.15_PT030H.grib2 2026-04-18 04:01 920K
20260418T00Z_MSC_GDPS_AirTemp_IsbL-0700_LatLon0.15_PT030H.grib2 2026-04-18 04:01 950K
20260418T00Z_MSC_GDPS_AirTemp_IsbL-0750_LatLon0.15_PT030H.grib2 2026-04-18 04:01 1.0M
20260418T00Z_MSC_GDPS_AirTemp_IsbL-0800_LatLon0.15_PT030H.grib2 2026-04-18 04:01 1.1M
20260418T00Z_MSC_GDPS_AirTemp_IsbL-0850_LatLon0.15_PT030H.grib2 2026-04-18 04:01 1.1M
20260418T00Z_MSC_GDPS_AirTemp_IsbL-0875_LatLon0.15_PT030H.grib2 2026-04-18 04:01 1.2M
20260418T00Z_MSC_GDPS_AirTemp_IsbL-0900_LatLon0.15_PT030H.grib2 2026-04-18 04:01 1.1M
20260418T00Z_MSC_GDPS_AirTemp_IsbL-0925_LatLon0.15_PT030H.grib2 2026-04-18 04:01 1.1M
20260418T00Z_MSC_GDPS_AirTemp_IsbL-0950_LatLon0.15_PT030H.grib2 2026-04-18 04:01 1.1M
20260418T00Z_MSC_GDPS_AirTemp_IsbL-0970_LatLon0.15_PT030H.grib2 2026-04-18 04:01 1.1M
20260418T00Z_MSC_GDPS_AirTemp_IsbL-0985_LatLon0.15_PT030H.grib2 2026-04-18 04:01 1.1M
20260418T00Z_MSC_GDPS_AirTemp_IsbL-1000_LatLon0.15_PT030H.grib2 2026-04-18 04:01 1.1M
20260418T00Z_MSC_GDPS_AirTemp_IsbL-1015_LatLon0.15_PT030H.grib2 2026-04-18 04:01 1.1M
20260418T00Z_MSC_GDPS_Albedo_Sfc_LatLon0.15_PT030H.grib2 2026-04-18 04:01 247K
20260418T00Z_MSC_GDPS_CAPE_Sfc_LatLon0.15_PT030H.grib2 2026-04-18 04:01 4.0M
20260418T00Z_MSC_GDPS_CIN_Sfc_LatLon0.15_PT030H.grib2 2026-04-18 04:01 2.9M
20260418T00Z_MSC_GDPS_CloudWater_EAtm_LatLon0.15_PT030H.grib2 2026-04-18 04:01 524K
20260418T00Z_MSC_GDPS_ConvectivePrecip-Accum_Sfc_LatLon0.15_PT030H.grib2 2026-04-18 04:01 2.5M
20260418T00Z_MSC_GDPS_DewPointDepression_AGL-2m_LatLon0.15_PT030H.grib2 2026-04-18 04:01 588K
20260418T00Z_MSC_GDPS_DewPointDepression_IsbL-0010_LatLon0.15_PT030H.grib2 2026-04-18 04:01 6.2K
20260418T00Z_MSC_GDPS_DewPointDepression_IsbL-0020_LatLon0.15_PT030H.grib2 2026-04-18 04:01 63K
20260418T00Z_MSC_GDPS_DewPointDepression_IsbL-0030_LatLon0.15_PT030H.grib2 2026-04-18 04:01 73K
20260418T00Z_MSC_GDPS_DewPointDepression_IsbL-0050_LatLon0.15_PT030H.grib2 2026-04-18 04:01 358K
20260418T00Z_MSC_GDPS_DewPointDepression_IsbL-0100_LatLon0.15_PT030H.grib2 2026-04-18 04:01 389K
20260418T00Z_MSC_GDPS_DewPointDepression_IsbL-0150_LatLon0.15_PT030H.grib2 2026-04-18 04:01 465K
20260418T00Z_MSC_GDPS_DewPointDepression_IsbL-0175_LatLon0.15_PT030H.grib2 2026-04-18 04:01 543K
20260418T00Z_MSC_GDPS_DewPointDepression_IsbL-0200_LatLon0.15_PT030H.grib2 2026-04-18 04:01 619K
20260418T00Z_MSC_GDPS_DewPointDepression_IsbL-0225_LatLon0.15_PT030H.grib2 2026-04-18 04:01 744K
20260418T00Z_MSC_GDPS_DewPointDepression_IsbL-0250_LatLon0.15_PT030H.grib2 2026-04-18 04:01 872K
20260418T00Z_MSC_GDPS_DewPointDepression_IsbL-0275_LatLon0.15_PT030H.grib2 2026-04-18 04:01 891K
20260418T00Z_MSC_GDPS_DewPointDepression_IsbL-0300_LatLon0.15_PT030H.grib2 2026-04-18 04:01 928K
20260418T00Z_MSC_GDPS_DewPointDepression_IsbL-0350_LatLon0.15_PT030H.grib2 2026-04-18 04:01 948K
20260418T00Z_MSC_GDPS_DewPointDepression_IsbL-0400_LatLon0.15_PT030H.grib2 2026-04-18 04:01 1.0M
20260418T00Z_MSC_GDPS_DewPointDepression_IsbL-0450_LatLon0.15_PT030H.grib2 2026-04-18 04:01 1.0M
20260418T00Z_MSC_GDPS_DewPointDepression_IsbL-0500_LatLon0.15_PT030H.grib2 2026-04-18 04:01 1.0M
20260418T00Z_MSC_GDPS_DewPointDepression_IsbL-0550_LatLon0.15_PT030H.grib2 2026-04-18 04:01 1.0M
20260418T00Z_MSC_GDPS_DewPointDepression_IsbL-0600_LatLon0.15_PT030H.grib2 2026-04-18 04:01 1.1M
20260418T00Z_MSC_GDPS_DewPointDepression_IsbL-0650_LatLon0.15_PT030H.grib2 2026-04-18 04:01 1.1M
20260418T00Z_MSC_GDPS_DewPointDepression_IsbL-0700_LatLon0.15_PT030H.grib2 2026-04-18 04:01 1.1M
20260418T00Z_MSC_GDPS_DewPointDepression_IsbL-0750_LatLon0.15_PT030H.grib2 2026-04-18 04:01 1.1M
20260418T00Z_MSC_GDPS_DewPointDepression_IsbL-0800_LatLon0.15_PT030H.grib2 2026-04-18 04:01 1.2M
20260418T00Z_MSC_GDPS_DewPointDepression_IsbL-0850_LatLon0.15_PT030H.grib2 2026-04-18 04:01 1.1M
20260418T00Z_MSC_GDPS_DewPointDepression_IsbL-0875_LatLon0.15_PT030H.grib2 2026-04-18 04:01 1.1M
20260418T00Z_MSC_GDPS_DewPointDepression_IsbL-0900_LatLon0.15_PT030H.grib2 2026-04-18 04:01 1.1M
20260418T00Z_MSC_GDPS_DewPointDepression_IsbL-0925_LatLon0.15_PT030H.grib2 2026-04-18 04:01 1.0M
20260418T00Z_MSC_GDPS_DewPointDepression_IsbL-0950_LatLon0.15_PT030H.grib2 2026-04-18 04:01 1.0M
20260418T00Z_MSC_GDPS_DewPointDepression_IsbL-0970_LatLon0.15_PT030H.grib2 2026-04-18 04:01 1.0M
20260418T00Z_MSC_GDPS_DewPointDepression_IsbL-0985_LatLon0.15_PT030H.grib2 2026-04-18 04:01 1.0M
20260418T00Z_MSC_GDPS_DewPointDepression_IsbL-1000_LatLon0.15_PT030H.grib2 2026-04-18 04:01 967K
20260418T00Z_MSC_GDPS_DewPointDepression_IsbL-1015_LatLon0.15_PT030H.grib2 2026-04-18 04:01 902K
20260418T00Z_MSC_GDPS_DewPoint_AGL-2m_LatLon0.15_PT030H.grib2 2026-04-18 04:01 606K
20260418T00Z_MSC_GDPS_DownwardLongwaveRadiationFlux-Accum_Sfc_LatLon0.15_PT030H.grib2 2026-04-18 04:01 1.0M
20260418T00Z_MSC_GDPS_DownwardShortwaveRadiationFlux-Accum_NTAtm_LatLon0.15_PT030H.grib2 2026-04-18 04:01 238K
20260418T00Z_MSC_GDPS_DownwardShortwaveRadiationFlux-Accum_Sfc_LatLon0.15_PT030H.grib2 2026-04-18 04:01 1.0M
20260418T00Z_MSC_GDPS_FreezingRain-Accum12h_Sfc_LatLon0.15_PT030H.grib2 2026-04-18 04:01 73K
20260418T00Z_MSC_GDPS_FreezingRain-Accum1h_Sfc_LatLon0.15_PT030H.grib2 2026-04-18 04:01 22K
20260418T00Z_MSC_GDPS_FreezingRain-Accum24h_Sfc_LatLon0.15_PT030H.grib2 2026-04-18 04:01 107K
20260418T00Z_MSC_GDPS_FreezingRain-Accum3h_Sfc_LatLon0.15_PT030H.grib2 2026-04-18 04:01 30K
20260418T00Z_MSC_GDPS_FreezingRain-Accum6h_Sfc_LatLon0.15_PT030H.grib2 2026-04-18 04:01 52K
20260418T00Z_MSC_GDPS_FreezingRain-Accum_Sfc_LatLon0.15_PT030H.grib2 2026-04-18 04:01 159K
20260418T00Z_MSC_GDPS_GeopotentialHeight_IsbL-0001_LatLon0.15_PT030H.grib2 2026-04-18 04:01 387K
20260418T00Z_MSC_GDPS_GeopotentialHeight_IsbL-0005_LatLon0.15_PT030H.grib2 2026-04-18 04:01 497K
20260418T00Z_MSC_GDPS_GeopotentialHeight_IsbL-0010_LatLon0.15_PT030H.grib2 2026-04-18 04:01 433K
20260418T00Z_MSC_GDPS_GeopotentialHeight_IsbL-0020_LatLon0.15_PT030H.grib2 2026-04-18 04:01 573K
20260418T00Z_MSC_GDPS_GeopotentialHeight_IsbL-0030_LatLon0.15_PT030H.grib2 2026-04-18 04:01 574K
20260418T00Z_MSC_GDPS_GeopotentialHeight_IsbL-0050_LatLon0.15_PT030H.grib2 2026-04-18 04:01 579K
20260418T00Z_MSC_GDPS_GeopotentialHeight_IsbL-0100_LatLon0.15_PT030H.grib2 2026-04-18 04:01 612K
20260418T00Z_MSC_GDPS_GeopotentialHeight_IsbL-0150_LatLon0.15_PT030H.grib2 2026-04-18 04:01 630K
20260418T00Z_MSC_GDPS_GeopotentialHeight_IsbL-0175_LatLon0.15_PT030H.grib2 2026-04-18 04:01 634K
20260418T00Z_MSC_GDPS_GeopotentialHeight_IsbL-0200_LatLon0.15_PT030H.grib2 2026-04-18 04:01 638K
20260418T00Z_MSC_GDPS_GeopotentialHeight_IsbL-0225_LatLon0.15_PT030H.grib2 2026-04-18 04:01 633K
20260418T00Z_MSC_GDPS_GeopotentialHeight_IsbL-0250_LatLon0.15_PT030H.grib2 2026-04-18 04:01 642K
20260418T00Z_MSC_GDPS_GeopotentialHeight_IsbL-0275_LatLon0.15_PT030H.grib2 2026-04-18 04:01 641K
20260418T00Z_MSC_GDPS_GeopotentialHeight_IsbL-0300_LatLon0.15_PT030H.grib2 2026-04-18 04:01 633K
20260418T00Z_MSC_GDPS_GeopotentialHeight_IsbL-0350_LatLon0.15_PT030H.grib2 2026-04-18 04:01 630K
20260418T00Z_MSC_GDPS_GeopotentialHeight_IsbL-0400_LatLon0.15_PT030H.grib2 2026-04-18 04:01 619K
20260418T00Z_MSC_GDPS_GeopotentialHeight_IsbL-0450_LatLon0.15_PT030H.grib2 2026-04-18 04:01 539K
20260418T00Z_MSC_GDPS_GeopotentialHeight_IsbL-0500_LatLon0.15_PT030H.grib2 2026-04-18 04:01 529K
20260418T00Z_MSC_GDPS_GeopotentialHeight_IsbL-0550_LatLon0.15_PT030H.grib2 2026-04-18 04:01 690K
20260418T00Z_MSC_GDPS_GeopotentialHeight_IsbL-0600_LatLon0.15_PT030H.grib2 2026-04-18 04:01 683K
20260418T00Z_MSC_GDPS_GeopotentialHeight_IsbL-0650_LatLon0.15_PT030H.grib2 2026-04-18 04:01 684K
20260418T00Z_MSC_GDPS_GeopotentialHeight_IsbL-0700_LatLon0.15_PT030H.grib2 2026-04-18 04:01 685K
20260418T00Z_MSC_GDPS_GeopotentialHeight_IsbL-0750_LatLon0.15_PT030H.grib2 2026-04-18 04:01 689K
20260418T00Z_MSC_GDPS_GeopotentialHeight_IsbL-0800_LatLon0.15_PT030H.grib2 2026-04-18 04:01 633K
20260418T00Z_MSC_GDPS_GeopotentialHeight_IsbL-0850_LatLon0.15_PT030H.grib2 2026-04-18 04:01 643K
20260418T00Z_MSC_GDPS_GeopotentialHeight_IsbL-0875_LatLon0.15_PT030H.grib2 2026-04-18 04:01 649K
20260418T00Z_MSC_GDPS_GeopotentialHeight_IsbL-0900_LatLon0.15_PT030H.grib2 2026-04-18 04:01 658K
20260418T00Z_MSC_GDPS_GeopotentialHeight_IsbL-0925_LatLon0.15_PT030H.grib2 2026-04-18 04:01 726K
20260418T00Z_MSC_GDPS_GeopotentialHeight_IsbL-0950_LatLon0.15_PT030H.grib2 2026-04-18 04:01 738K
20260418T00Z_MSC_GDPS_GeopotentialHeight_IsbL-0970_LatLon0.15_PT030H.grib2 2026-04-18 04:01 747K
20260418T00Z_MSC_GDPS_GeopotentialHeight_IsbL-0985_LatLon0.15_PT030H.grib2 2026-04-18 04:01 763K
20260418T00Z_MSC_GDPS_GeopotentialHeight_IsbL-1000_LatLon0.15_PT030H.grib2 2026-04-18 04:01 785K
20260418T00Z_MSC_GDPS_GeopotentialHeight_IsbL-1015_LatLon0.15_PT030H.grib2 2026-04-18 04:01 809K
20260418T00Z_MSC_GDPS_Humidex_Sfc_LatLon0.15_PT030H.grib2 2026-04-18 04:01 5.3M
20260418T00Z_MSC_GDPS_IcePellets-Accum12h_Sfc_LatLon0.15_PT030H.grib2 2026-04-18 04:01 60K
20260418T00Z_MSC_GDPS_IcePellets-Accum1h_Sfc_LatLon0.15_PT030H.grib2 2026-04-18 04:01 20K
20260418T00Z_MSC_GDPS_IcePellets-Accum24h_Sfc_LatLon0.15_PT030H.grib2 2026-04-18 04:01 88K
20260418T00Z_MSC_GDPS_IcePellets-Accum3h_Sfc_LatLon0.15_PT030H.grib2 2026-04-18 04:01 26K
20260418T00Z_MSC_GDPS_IcePellets-Accum6h_Sfc_LatLon0.15_PT030H.grib2 2026-04-18 04:01 40K
20260418T00Z_MSC_GDPS_IcePellets-Accum_Sfc_LatLon0.15_PT030H.grib2 2026-04-18 04:01 92K
20260418T00Z_MSC_GDPS_KIndex_Sfc_LatLon0.15_PT030H.grib2 2026-04-18 04:01 6.5M
20260418T00Z_MSC_GDPS_LatentHeatNetFlux_Sfc_LatLon0.15_PT030H.grib2 2026-04-18 04:01 520K
20260418T00Z_MSC_GDPS_LiftedIndex-MU-VT_IsbL-0500_LatLon0.15_PT030H.grib2 2026-04-18 04:01 5.4M
20260418T00Z_MSC_GDPS_NetLongwaveRadiationFlux-Accum_Sfc_LatLon0.15_PT030H.grib2 2026-04-18 04:01 1.3M
20260418T00Z_MSC_GDPS_NetShortwaveRadiationFlux-Accum_Sfc_LatLon0.15_PT030H.grib2 2026-04-18 04:01 1.0M
20260418T00Z_MSC_GDPS_O3MixingRatio_LatLon0.15_PT030H.grib2 2026-04-18 04:49 2.0M
20260418T00Z_MSC_GDPS_O3_EAtm_LatLon0.15_PT030H.grib2 2026-04-18 04:49 2.1M
20260418T00Z_MSC_GDPS_PlanetaryBoundaryLayerHeight_Sfc_LatLon0.15_PT030H.grib2 2026-04-18 04:01 2.4M
20260418T00Z_MSC_GDPS_Precip-Accum12h_Sfc_LatLon0.15_PT030H.grib2 2026-04-18 04:01 4.0M
20260418T00Z_MSC_GDPS_Precip-Accum1h_Sfc_LatLon0.15_PT030H.grib2 2026-04-18 04:01 3.2M
20260418T00Z_MSC_GDPS_Precip-Accum24h_Sfc_LatLon0.15_PT030H.grib2 2026-04-18 04:01 4.5M
20260418T00Z_MSC_GDPS_Precip-Accum3h_Sfc_LatLon0.15_PT030H.grib2 2026-04-18 04:01 3.4M
20260418T00Z_MSC_GDPS_Precip-Accum6h_Sfc_LatLon0.15_PT030H.grib2 2026-04-18 04:01 3.8M
20260418T00Z_MSC_GDPS_Precip-Accum_Sfc_LatLon0.15_PT030H.grib2 2026-04-18 04:01 4.5M
20260418T00Z_MSC_GDPS_PrecipRate_Sfc_LatLon0.15_PT030H.grib2 2026-04-18 04:01 2.9M
20260418T00Z_MSC_GDPS_PrecipType-Instant_Sfc_LatLon0.15_PT030H.grib2 2026-04-18 04:01 1.5M
20260418T00Z_MSC_GDPS_Pressure_MSL_LatLon0.15_PT030H.grib2 2026-04-18 04:01 716K
20260418T00Z_MSC_GDPS_Pressure_PVU-1.5_LatLon0.15_PT030H.grib2 2026-04-18 04:01 5.8M
20260418T00Z_MSC_GDPS_Pressure_PVU-1_LatLon0.15_PT030H.grib2 2026-04-18 04:01 6.0M
20260418T00Z_MSC_GDPS_Pressure_PVU-2_LatLon0.15_PT030H.grib2 2026-04-18 04:01 5.6M
20260418T00Z_MSC_GDPS_Pressure_Sfc_LatLon0.15_PT030H.grib2 2026-04-18 04:01 1.1M
20260418T00Z_MSC_GDPS_RadiativeTemp_Sfc_LatLon0.15_PT030H.grib2 2026-04-18 04:01 668K
20260418T00Z_MSC_GDPS_Rain-Accum12h_Sfc_LatLon0.15_PT030H.grib2 2026-04-18 04:01 2.8M
20260418T00Z_MSC_GDPS_Rain-Accum1h_Sfc_LatLon0.15_PT030H.grib2 2026-04-18 04:01 1.6M
20260418T00Z_MSC_GDPS_Rain-Accum24h_Sfc_LatLon0.15_PT030H.grib2 2026-04-18 04:01 3.1M
20260418T00Z_MSC_GDPS_Rain-Accum3h_Sfc_LatLon0.15_PT030H.grib2 2026-04-18 04:01 1.7M
20260418T00Z_MSC_GDPS_Rain-Accum6h_Sfc_LatLon0.15_PT030H.grib2 2026-04-18 04:01 2.3M
20260418T00Z_MSC_GDPS_Rain-Accum_Sfc_LatLon0.15_PT030H.grib2 2026-04-18 04:01 3.3M
20260418T00Z_MSC_GDPS_RelativeHumidity_AGL-2m_LatLon0.15_PT030H.grib2 2026-04-18 04:01 1.1M
20260418T00Z_MSC_GDPS_RelativeHumidity_IsbL-0010_LatLon0.15_PT030H.grib2 2026-04-18 04:01 274K
20260418T00Z_MSC_GDPS_RelativeHumidity_IsbL-0020_LatLon0.15_PT030H.grib2 2026-04-18 04:01 397K
20260418T00Z_MSC_GDPS_RelativeHumidity_IsbL-0030_LatLon0.15_PT030H.grib2 2026-04-18 04:01 387K
20260418T00Z_MSC_GDPS_RelativeHumidity_IsbL-0050_LatLon0.15_PT030H.grib2 2026-04-18 04:01 328K
20260418T00Z_MSC_GDPS_RelativeHumidity_IsbL-0100_LatLon0.15_PT030H.grib2 2026-04-18 04:01 496K
20260418T00Z_MSC_GDPS_RelativeHumidity_IsbL-0150_LatLon0.15_PT030H.grib2 2026-04-18 04:01 655K
20260418T00Z_MSC_GDPS_RelativeHumidity_IsbL-0175_LatLon0.15_PT030H.grib2 2026-04-18 04:01 786K
20260418T00Z_MSC_GDPS_RelativeHumidity_IsbL-0200_LatLon0.15_PT030H.grib2 2026-04-18 04:01 688K
20260418T00Z_MSC_GDPS_RelativeHumidity_IsbL-0225_LatLon0.15_PT030H.grib2 2026-04-18 04:01 771K
20260418T00Z_MSC_GDPS_RelativeHumidity_IsbL-0250_LatLon0.15_PT030H.grib2 2026-04-18 04:01 863K
20260418T00Z_MSC_GDPS_RelativeHumidity_IsbL-0275_LatLon0.15_PT030H.grib2 2026-04-18 04:01 893K
20260418T00Z_MSC_GDPS_RelativeHumidity_IsbL-0300_LatLon0.15_PT030H.grib2 2026-04-18 04:01 938K
20260418T00Z_MSC_GDPS_RelativeHumidity_IsbL-0350_LatLon0.15_PT030H.grib2 2026-04-18 04:01 948K
20260418T00Z_MSC_GDPS_RelativeHumidity_IsbL-0400_LatLon0.15_PT030H.grib2 2026-04-18 04:01 972K
20260418T00Z_MSC_GDPS_RelativeHumidity_IsbL-0450_LatLon0.15_PT030H.grib2 2026-04-18 04:01 1.0M
20260418T00Z_MSC_GDPS_RelativeHumidity_IsbL-0500_LatLon0.15_PT030H.grib2 2026-04-18 04:01 1.0M
20260418T00Z_MSC_GDPS_RelativeHumidity_IsbL-0550_LatLon0.15_PT030H.grib2 2026-04-18 04:01 1.1M
20260418T00Z_MSC_GDPS_RelativeHumidity_IsbL-0600_LatLon0.15_PT030H.grib2 2026-04-18 04:01 1.1M
20260418T00Z_MSC_GDPS_RelativeHumidity_IsbL-0650_LatLon0.15_PT030H.grib2 2026-04-18 04:01 1.1M
20260418T00Z_MSC_GDPS_RelativeHumidity_IsbL-0700_LatLon0.15_PT030H.grib2 2026-04-18 04:01 1.1M
20260418T00Z_MSC_GDPS_RelativeHumidity_IsbL-0750_LatLon0.15_PT030H.grib2 2026-04-18 04:01 1.2M
20260418T00Z_MSC_GDPS_RelativeHumidity_IsbL-0800_LatLon0.15_PT030H.grib2 2026-04-18 04:01 1.2M
20260418T00Z_MSC_GDPS_RelativeHumidity_IsbL-0850_LatLon0.15_PT030H.grib2 2026-04-18 04:01 1.3M
20260418T00Z_MSC_GDPS_RelativeHumidity_IsbL-0875_LatLon0.15_PT030H.grib2 2026-04-18 04:01 1.3M
20260418T00Z_MSC_GDPS_RelativeHumidity_IsbL-0900_LatLon0.15_PT030H.grib2 2026-04-18 04:01 1.2M
20260418T00Z_MSC_GDPS_RelativeHumidity_IsbL-0925_LatLon0.15_PT030H.grib2 2026-04-18 04:01 1.2M
20260418T00Z_MSC_GDPS_RelativeHumidity_IsbL-0950_LatLon0.15_PT030H.grib2 2026-04-18 04:01 1.2M
20260418T00Z_MSC_GDPS_RelativeHumidity_IsbL-0970_LatLon0.15_PT030H.grib2 2026-04-18 04:01 1.2M
20260418T00Z_MSC_GDPS_RelativeHumidity_IsbL-0985_LatLon0.15_PT030H.grib2 2026-04-18 04:01 1.1M
20260418T00Z_MSC_GDPS_RelativeHumidity_IsbL-1000_LatLon0.15_PT030H.grib2 2026-04-18 04:01 1.1M
20260418T00Z_MSC_GDPS_RelativeHumidity_IsbL-1015_LatLon0.15_PT030H.grib2 2026-04-18 04:01 1.0M
20260418T00Z_MSC_GDPS_RelativeVorticity_IsbL-0200_LatLon0.15_PT030H.grib2 2026-04-18 04:01 1.5M
20260418T00Z_MSC_GDPS_RelativeVorticity_IsbL-0250_LatLon0.15_PT030H.grib2 2026-04-18 04:01 1.3M
20260418T00Z_MSC_GDPS_RelativeVorticity_IsbL-0500_LatLon0.15_PT030H.grib2 2026-04-18 04:01 1.4M
20260418T00Z_MSC_GDPS_RelativeVorticity_IsbL-0700_LatLon0.15_PT030H.grib2 2026-04-18 04:01 1.6M
20260418T00Z_MSC_GDPS_RelativeVorticity_IsbL-0850_LatLon0.15_PT030H.grib2 2026-04-18 04:01 1.6M
20260418T00Z_MSC_GDPS_Runoff-Accum_Sfc_LatLon0.15_PT030H.grib2 2026-04-18 04:01 81K
20260418T00Z_MSC_GDPS_SensibleHeatNetFlux_Sfc_LatLon0.15_PT030H.grib2 2026-04-18 04:01 633K
20260418T00Z_MSC_GDPS_ShowalterIndex_IsbL-0500_LatLon0.15_PT030H.grib2 2026-04-18 04:01 6.2M
20260418T00Z_MSC_GDPS_Snow-Accum12h_Sfc_LatLon0.15_PT030H.grib2 2026-04-18 04:01 1.4M
20260418T00Z_MSC_GDPS_Snow-Accum1h_Sfc_LatLon0.15_PT030H.grib2 2026-04-18 04:01 815K
20260418T00Z_MSC_GDPS_Snow-Accum24h_Sfc_LatLon0.15_PT030H.grib2 2026-04-18 04:01 1.5M
20260418T00Z_MSC_GDPS_Snow-Accum3h_Sfc_LatLon0.15_PT030H.grib2 2026-04-18 04:01 913K
20260418T00Z_MSC_GDPS_Snow-Accum6h_Sfc_LatLon0.15_PT030H.grib2 2026-04-18 04:01 1.2M
20260418T00Z_MSC_GDPS_Snow-Accum_Sfc_LatLon0.15_PT030H.grib2 2026-04-18 04:01 1.7M
20260418T00Z_MSC_GDPS_SnowDensity_Sfc_LatLon0.15_PT030H.grib2 2026-04-18 04:01 266K
20260418T00Z_MSC_GDPS_SnowDepth_Sfc_LatLon0.15_PT030H.grib2 2026-04-18 04:01 1.8M
20260418T00Z_MSC_GDPS_SoilTemp_DBS-0to10cm_LatLon0.15_PT030H.grib2 2026-04-18 04:01 499K
20260418T00Z_MSC_GDPS_SoilTemp_Sfc_LatLon0.15_PT030H.grib2 2026-04-18 04:01 577K
20260418T00Z_MSC_GDPS_SoilVolumetricIceContent_Sfc_LatLon0.15_PT030H.grib2 2026-04-18 04:01 223K
20260418T00Z_MSC_GDPS_SoilVolumetricWaterContent_DBS-0to10cm_LatLon0.15_PT030H.grib2 2026-04-18 04:01 555K
20260418T00Z_MSC_GDPS_SoilVolumetricWaterContent_DBS-0to1cm_LatLon0.15_PT030H.grib2 2026-04-18 04:01 650K
20260418T00Z_MSC_GDPS_SpecificHumidity_AGL-120m_LatLon0.15_PT030H.grib2 2026-04-18 04:01 1.1M
20260418T00Z_MSC_GDPS_SpecificHumidity_AGL-2m_LatLon0.15_PT030H.grib2 2026-04-18 04:01 1.2M
20260418T00Z_MSC_GDPS_SpecificHumidity_AGL-40m_LatLon0.15_PT030H.grib2 2026-04-18 04:01 1.1M
20260418T00Z_MSC_GDPS_SpecificHumidity_AGL-80m_LatLon0.15_PT030H.grib2 2026-04-18 04:01 1.1M
20260418T00Z_MSC_GDPS_SpecificHumidity_IsbL-0001_LatLon0.15_PT030H.grib2 2026-04-18 04:01 1.3M
20260418T00Z_MSC_GDPS_SpecificHumidity_IsbL-0005_LatLon0.15_PT030H.grib2 2026-04-18 04:01 1.2M
20260418T00Z_MSC_GDPS_SpecificHumidity_IsbL-0010_LatLon0.15_PT030H.grib2 2026-04-18 04:01 1.3M
20260418T00Z_MSC_GDPS_SpecificHumidity_IsbL-0020_LatLon0.15_PT030H.grib2 2026-04-18 04:01 1.4M
20260418T00Z_MSC_GDPS_SpecificHumidity_IsbL-0030_LatLon0.15_PT030H.grib2 2026-04-18 04:01 1.4M
20260418T00Z_MSC_GDPS_SpecificHumidity_IsbL-0050_LatLon0.15_PT030H.grib2 2026-04-18 04:01 1.4M
20260418T00Z_MSC_GDPS_SpecificHumidity_IsbL-0100_LatLon0.15_PT030H.grib2 2026-04-18 04:01 1.3M
20260418T00Z_MSC_GDPS_SpecificHumidity_IsbL-0150_LatLon0.15_PT030H.grib2 2026-04-18 04:01 1.4M
20260418T00Z_MSC_GDPS_SpecificHumidity_IsbL-0175_LatLon0.15_PT030H.grib2 2026-04-18 04:01 1.3M
20260418T00Z_MSC_GDPS_SpecificHumidity_IsbL-0200_LatLon0.15_PT030H.grib2 2026-04-18 04:01 1.3M
20260418T00Z_MSC_GDPS_SpecificHumidity_IsbL-0225_LatLon0.15_PT030H.grib2 2026-04-18 04:01 1.3M
20260418T00Z_MSC_GDPS_SpecificHumidity_IsbL-0250_LatLon0.15_PT030H.grib2 2026-04-18 04:01 1.5M
20260418T00Z_MSC_GDPS_SpecificHumidity_IsbL-0275_LatLon0.15_PT030H.grib2 2026-04-18 04:01 1.3M
20260418T00Z_MSC_GDPS_SpecificHumidity_IsbL-0300_LatLon0.15_PT030H.grib2 2026-04-18 04:01 1.2M
20260418T00Z_MSC_GDPS_SpecificHumidity_IsbL-0350_LatLon0.15_PT030H.grib2 2026-04-18 04:01 1.2M
20260418T00Z_MSC_GDPS_SpecificHumidity_IsbL-0400_LatLon0.15_PT030H.grib2 2026-04-18 04:01 1.5M
20260418T00Z_MSC_GDPS_SpecificHumidity_IsbL-0450_LatLon0.15_PT030H.grib2 2026-04-18 04:01 1.3M
20260418T00Z_MSC_GDPS_SpecificHumidity_IsbL-0500_LatLon0.15_PT030H.grib2 2026-04-18 04:01 1.4M
20260418T00Z_MSC_GDPS_SpecificHumidity_IsbL-0550_LatLon0.15_PT030H.grib2 2026-04-18 04:01 1.6M
20260418T00Z_MSC_GDPS_SpecificHumidity_IsbL-0600_LatLon0.15_PT030H.grib2 2026-04-18 04:01 1.4M
20260418T00Z_MSC_GDPS_SpecificHumidity_IsbL-0650_LatLon0.15_PT030H.grib2 2026-04-18 04:01 1.5M
20260418T00Z_MSC_GDPS_SpecificHumidity_IsbL-0700_LatLon0.15_PT030H.grib2 2026-04-18 04:01 1.6M
20260418T00Z_MSC_GDPS_SpecificHumidity_IsbL-0750_LatLon0.15_PT030H.grib2 2026-04-18 04:01 1.7M
20260418T00Z_MSC_GDPS_SpecificHumidity_IsbL-0800_LatLon0.15_PT030H.grib2 2026-04-18 04:01 1.8M
20260418T00Z_MSC_GDPS_SpecificHumidity_IsbL-0850_LatLon0.15_PT030H.grib2 2026-04-18 04:01 1.9M
20260418T00Z_MSC_GDPS_SpecificHumidity_IsbL-0875_LatLon0.15_PT030H.grib2 2026-04-18 04:01 1.9M
20260418T00Z_MSC_GDPS_SpecificHumidity_IsbL-0900_LatLon0.15_PT030H.grib2 2026-04-18 04:01 1.6M
20260418T00Z_MSC_GDPS_SpecificHumidity_IsbL-0925_LatLon0.15_PT030H.grib2 2026-04-18 04:01 1.6M
20260418T00Z_MSC_GDPS_SpecificHumidity_IsbL-0950_LatLon0.15_PT030H.grib2 2026-04-18 04:01 1.5M
20260418T00Z_MSC_GDPS_SpecificHumidity_IsbL-0970_LatLon0.15_PT030H.grib2 2026-04-18 04:01 1.5M
20260418T00Z_MSC_GDPS_SpecificHumidity_IsbL-0985_LatLon0.15_PT030H.grib2 2026-04-18 04:01 1.5M
20260418T00Z_MSC_GDPS_SpecificHumidity_IsbL-1000_LatLon0.15_PT030H.grib2 2026-04-18 04:01 1.5M
20260418T00Z_MSC_GDPS_SpecificHumidity_IsbL-1015_LatLon0.15_PT030H.grib2 2026-04-18 04:01 1.4M
20260418T00Z_MSC_GDPS_SpecificHumidity_Sfc_LatLon0.15_PT030H.grib2 2026-04-18 04:01 663K
20260418T00Z_MSC_GDPS_Thickness_IsbL-0850to0700_LatLon0.15_PT030H.grib2 2026-04-18 04:01 470K
20260418T00Z_MSC_GDPS_Thickness_IsbL-1000to0500_LatLon0.15_PT030H.grib2 2026-04-18 04:01 377K
20260418T00Z_MSC_GDPS_Thickness_IsbL-1000to0850_LatLon0.15_PT030H.grib2 2026-04-18 04:01 490K
20260418T00Z_MSC_GDPS_TotalCloudCover_Sfc_LatLon0.15_PT030H.grib2 2026-04-18 04:01 811K
20260418T00Z_MSC_GDPS_TotalTotalsIndex_Sfc_LatLon0.15_PT030H.grib2 2026-04-18 04:01 6.2M
20260418T00Z_MSC_GDPS_UVIndex-ClearSky_Sfc_LatLon0.15_PT030H.grib2 2026-04-18 04:49 1.0M
20260418T00Z_MSC_GDPS_UVIndex_Sfc_LatLon0.15_PT030H.grib2 2026-04-18 04:49 1.4M
20260418T00Z_MSC_GDPS_UpwardLongwaveRadiationFlux_NTAtm_LatLon0.15_PT030H.grib2 2026-04-18 04:01 824K
20260418T00Z_MSC_GDPS_VerticalVelocity_IsbL-0200_LatLon0.15_PT030H.grib2 2026-04-18 04:01 932K
20260418T00Z_MSC_GDPS_VerticalVelocity_IsbL-0250_LatLon0.15_PT030H.grib2 2026-04-18 04:01 1.0M
20260418T00Z_MSC_GDPS_VerticalVelocity_IsbL-0500_LatLon0.15_PT030H.grib2 2026-04-18 04:01 1.3M
20260418T00Z_MSC_GDPS_VerticalVelocity_IsbL-0600_LatLon0.15_PT030H.grib2 2026-04-18 04:01 1.3M
20260418T00Z_MSC_GDPS_VerticalVelocity_IsbL-0700_LatLon0.15_PT030H.grib2 2026-04-18 04:01 1.1M
20260418T00Z_MSC_GDPS_VerticalVelocity_IsbL-0850_LatLon0.15_PT030H.grib2 2026-04-18 04:01 1.3M
20260418T00Z_MSC_GDPS_WindChill_Sfc_LatLon0.15_PT030H.grib2 2026-04-18 04:01 5.3M
20260418T00Z_MSC_GDPS_WindDir_AGL-10m_LatLon0.15_PT030H.grib2 2026-04-18 04:01 1.3M
20260418T00Z_MSC_GDPS_WindDir_AGL-120m_LatLon0.15_PT030H.grib2 2026-04-18 04:01 1.4M
20260418T00Z_MSC_GDPS_WindDir_AGL-40m_LatLon0.15_PT030H.grib2 2026-04-18 04:01 1.4M
20260418T00Z_MSC_GDPS_WindDir_AGL-80m_LatLon0.15_PT030H.grib2 2026-04-18 04:01 1.4M
20260418T00Z_MSC_GDPS_WindDir_IsbL-0001_LatLon0.15_PT030H.grib2 2026-04-18 04:01 642K
20260418T00Z_MSC_GDPS_WindDir_IsbL-0005_LatLon0.15_PT030H.grib2 2026-04-18 04:01 819K
20260418T00Z_MSC_GDPS_WindDir_IsbL-0010_LatLon0.15_PT030H.grib2 2026-04-18 04:01 857K
20260418T00Z_MSC_GDPS_WindDir_IsbL-0020_LatLon0.15_PT030H.grib2 2026-04-18 04:01 928K
20260418T00Z_MSC_GDPS_WindDir_IsbL-0030_LatLon0.15_PT030H.grib2 2026-04-18 04:01 895K
20260418T00Z_MSC_GDPS_WindDir_IsbL-0050_LatLon0.15_PT030H.grib2 2026-04-18 04:01 952K
20260418T00Z_MSC_GDPS_WindDir_IsbL-0100_LatLon0.15_PT030H.grib2 2026-04-18 04:01 1.0M
20260418T00Z_MSC_GDPS_WindDir_IsbL-0150_LatLon0.15_PT030H.grib2 2026-04-18 04:01 1.0M
20260418T00Z_MSC_GDPS_WindDir_IsbL-0175_LatLon0.15_PT030H.grib2 2026-04-18 04:01 1.1M
20260418T00Z_MSC_GDPS_WindDir_IsbL-0200_LatLon0.15_PT030H.grib2 2026-04-18 04:01 1.1M
20260418T00Z_MSC_GDPS_WindDir_IsbL-0225_LatLon0.15_PT030H.grib2 2026-04-18 04:01 1.1M
20260418T00Z_MSC_GDPS_WindDir_IsbL-0250_LatLon0.15_PT030H.grib2 2026-04-18 04:01 1.1M
20260418T00Z_MSC_GDPS_WindDir_IsbL-0275_LatLon0.15_PT030H.grib2 2026-04-18 04:01 1.1M
20260418T00Z_MSC_GDPS_WindDir_IsbL-0300_LatLon0.15_PT030H.grib2 2026-04-18 04:01 1.2M
20260418T00Z_MSC_GDPS_WindDir_IsbL-0350_LatLon0.15_PT030H.grib2 2026-04-18 04:01 1.2M
20260418T00Z_MSC_GDPS_WindDir_IsbL-0400_LatLon0.15_PT030H.grib2 2026-04-18 04:01 1.3M
20260418T00Z_MSC_GDPS_WindDir_IsbL-0450_LatLon0.15_PT030H.grib2 2026-04-18 04:01 1.3M
20260418T00Z_MSC_GDPS_WindDir_IsbL-0500_LatLon0.15_PT030H.grib2 2026-04-18 04:01 1.3M
20260418T00Z_MSC_GDPS_WindDir_IsbL-0550_LatLon0.15_PT030H.grib2 2026-04-18 04:01 1.4M
20260418T00Z_MSC_GDPS_WindDir_IsbL-0600_LatLon0.15_PT030H.grib2 2026-04-18 04:01 1.4M
20260418T00Z_MSC_GDPS_WindDir_IsbL-0650_LatLon0.15_PT030H.grib2 2026-04-18 04:01 1.5M
20260418T00Z_MSC_GDPS_WindDir_IsbL-0700_LatLon0.15_PT030H.grib2 2026-04-18 04:01 1.6M
20260418T00Z_MSC_GDPS_WindDir_IsbL-0750_LatLon0.15_PT030H.grib2 2026-04-18 04:01 1.7M
20260418T00Z_MSC_GDPS_WindDir_IsbL-0800_LatLon0.15_PT030H.grib2 2026-04-18 04:01 1.8M
20260418T00Z_MSC_GDPS_WindDir_IsbL-0850_LatLon0.15_PT030H.grib2 2026-04-18 04:01 1.9M
20260418T00Z_MSC_GDPS_WindDir_IsbL-0875_LatLon0.15_PT030H.grib2 2026-04-18 04:01 2.0M
20260418T00Z_MSC_GDPS_WindDir_IsbL-0900_LatLon0.15_PT030H.grib2 2026-04-18 04:01 2.0M
20260418T00Z_MSC_GDPS_WindDir_IsbL-0925_LatLon0.15_PT030H.grib2 2026-04-18 04:01 2.0M
20260418T00Z_MSC_GDPS_WindDir_IsbL-0950_LatLon0.15_PT030H.grib2 2026-04-18 04:01 2.0M
20260418T00Z_MSC_GDPS_WindDir_IsbL-0970_LatLon0.15_PT030H.grib2 2026-04-18 04:01 2.0M
20260418T00Z_MSC_GDPS_WindDir_IsbL-0985_LatLon0.15_PT030H.grib2 2026-04-18 04:01 2.1M
20260418T00Z_MSC_GDPS_WindDir_IsbL-1000_LatLon0.15_PT030H.grib2 2026-04-18 04:01 2.1M
20260418T00Z_MSC_GDPS_WindDir_IsbL-1015_LatLon0.15_PT030H.grib2 2026-04-18 04:01 2.1M
20260418T00Z_MSC_GDPS_WindGust-Max_AGL-10m_LatLon0.15_PT030H.grib2 2026-04-18 04:01 2.3M
20260418T00Z_MSC_GDPS_WindGust-Min_AGL-10m_LatLon0.15_PT030H.grib2 2026-04-18 04:01 2.2M
20260418T00Z_MSC_GDPS_WindGust_AGL-10m_LatLon0.15_PT030H.grib2 2026-04-18 04:01 2.2M
20260418T00Z_MSC_GDPS_WindSpeed_AGL-10m_LatLon0.15_PT030H.grib2 2026-04-18 04:01 1.1M
20260418T00Z_MSC_GDPS_WindSpeed_AGL-120m_LatLon0.15_PT030H.grib2 2026-04-18 04:01 1.2M
20260418T00Z_MSC_GDPS_WindSpeed_AGL-40m_LatLon0.15_PT030H.grib2 2026-04-18 04:01 1.2M
20260418T00Z_MSC_GDPS_WindSpeed_AGL-80m_LatLon0.15_PT030H.grib2 2026-04-18 04:01 1.2M
20260418T00Z_MSC_GDPS_WindSpeed_IsbL-0001_LatLon0.15_PT030H.grib2 2026-04-18 04:01 639K
20260418T00Z_MSC_GDPS_WindSpeed_IsbL-0005_LatLon0.15_PT030H.grib2 2026-04-18 04:01 697K
20260418T00Z_MSC_GDPS_WindSpeed_IsbL-0010_LatLon0.15_PT030H.grib2 2026-04-18 04:01 713K
20260418T00Z_MSC_GDPS_WindSpeed_IsbL-0020_LatLon0.15_PT030H.grib2 2026-04-18 04:01 674K
20260418T00Z_MSC_GDPS_WindSpeed_IsbL-0030_LatLon0.15_PT030H.grib2 2026-04-18 04:01 864K
20260418T00Z_MSC_GDPS_WindSpeed_IsbL-0050_LatLon0.15_PT030H.grib2 2026-04-18 04:01 921K
20260418T00Z_MSC_GDPS_WindSpeed_IsbL-0100_LatLon0.15_PT030H.grib2 2026-04-18 04:01 1.1M
20260418T00Z_MSC_GDPS_WindSpeed_IsbL-0150_LatLon0.15_PT030H.grib2 2026-04-18 04:01 1.0M
20260418T00Z_MSC_GDPS_WindSpeed_IsbL-0175_LatLon0.15_PT030H.grib2 2026-04-18 04:01 1.0M
20260418T00Z_MSC_GDPS_WindSpeed_IsbL-0200_LatLon0.15_PT030H.grib2 2026-04-18 04:01 1.1M
20260418T00Z_MSC_GDPS_WindSpeed_IsbL-0225_LatLon0.15_PT030H.grib2 2026-04-18 04:01 1.1M
20260418T00Z_MSC_GDPS_WindSpeed_IsbL-0250_LatLon0.15_PT030H.grib2 2026-04-18 04:01 1.1M
20260418T00Z_MSC_GDPS_WindSpeed_IsbL-0275_LatLon0.15_PT030H.grib2 2026-04-18 04:01 1.1M
20260418T00Z_MSC_GDPS_WindSpeed_IsbL-0300_LatLon0.15_PT030H.grib2 2026-04-18 04:01 1.1M
20260418T00Z_MSC_GDPS_WindSpeed_IsbL-0350_LatLon0.15_PT030H.grib2 2026-04-18 04:01 1.1M
20260418T00Z_MSC_GDPS_WindSpeed_IsbL-0400_LatLon0.15_PT030H.grib2 2026-04-18 04:01 1.1M
20260418T00Z_MSC_GDPS_WindSpeed_IsbL-0450_LatLon0.15_PT030H.grib2 2026-04-18 04:01 1.1M
20260418T00Z_MSC_GDPS_WindSpeed_IsbL-0500_LatLon0.15_PT030H.grib2 2026-04-18 04:01 1.1M
20260418T00Z_MSC_GDPS_WindSpeed_IsbL-0550_LatLon0.15_PT030H.grib2 2026-04-18 04:01 1.1M
20260418T00Z_MSC_GDPS_WindSpeed_IsbL-0600_LatLon0.15_PT030H.grib2 2026-04-18 04:01 1.4M
20260418T00Z_MSC_GDPS_WindSpeed_IsbL-0650_LatLon0.15_PT030H.grib2 2026-04-18 04:01 1.4M
20260418T00Z_MSC_GDPS_WindSpeed_IsbL-0700_LatLon0.15_PT030H.grib2 2026-04-18 04:01 1.5M
20260418T00Z_MSC_GDPS_WindSpeed_IsbL-0750_LatLon0.15_PT030H.grib2 2026-04-18 04:01 1.5M
20260418T00Z_MSC_GDPS_WindSpeed_IsbL-0800_LatLon0.15_PT030H.grib2 2026-04-18 04:01 1.7M
20260418T00Z_MSC_GDPS_WindSpeed_IsbL-0850_LatLon0.15_PT030H.grib2 2026-04-18 04:01 1.8M
20260418T00Z_MSC_GDPS_WindSpeed_IsbL-0875_LatLon0.15_PT030H.grib2 2026-04-18 04:01 1.9M
20260418T00Z_MSC_GDPS_WindSpeed_IsbL-0900_LatLon0.15_PT030H.grib2 2026-04-18 04:01 1.9M
20260418T00Z_MSC_GDPS_WindSpeed_IsbL-0925_LatLon0.15_PT030H.grib2 2026-04-18 04:01 1.9M
20260418T00Z_MSC_GDPS_WindSpeed_IsbL-0950_LatLon0.15_PT030H.grib2 2026-04-18 04:01 1.9M
20260418T00Z_MSC_GDPS_WindSpeed_IsbL-0970_LatLon0.15_PT030H.grib2 2026-04-18 04:01 1.9M
20260418T00Z_MSC_GDPS_WindSpeed_IsbL-0985_LatLon0.15_PT030H.grib2 2026-04-18 04:01 1.9M
20260418T00Z_MSC_GDPS_WindSpeed_IsbL-1000_LatLon0.15_PT030H.grib2 2026-04-18 04:01 1.8M
20260418T00Z_MSC_GDPS_WindSpeed_IsbL-1015_LatLon0.15_PT030H.grib2 2026-04-18 04:01 1.8M
20260418T00Z_MSC_GDPS_WindU_AGL-10m_LatLon0.15_PT030H.grib2 2026-04-18 04:01 1.6M
20260418T00Z_MSC_GDPS_WindU_AGL-120m_LatLon0.15_PT030H.grib2 2026-04-18 04:01 964K
20260418T00Z_MSC_GDPS_WindU_AGL-40m_LatLon0.15_PT030H.grib2 2026-04-18 04:01 960K
20260418T00Z_MSC_GDPS_WindU_AGL-80m_LatLon0.15_PT030H.grib2 2026-04-18 04:01 964K
20260418T00Z_MSC_GDPS_WindU_IsbL-0001_LatLon0.15_PT030H.grib2 2026-04-18 04:01 642K
20260418T00Z_MSC_GDPS_WindU_IsbL-0005_LatLon0.15_PT030H.grib2 2026-04-18 04:01 697K
20260418T00Z_MSC_GDPS_WindU_IsbL-0010_LatLon0.15_PT030H.grib2 2026-04-18 04:01 709K
20260418T00Z_MSC_GDPS_WindU_IsbL-0020_LatLon0.15_PT030H.grib2 2026-04-18 04:01 742K
20260418T00Z_MSC_GDPS_WindU_IsbL-0030_LatLon0.15_PT030H.grib2 2026-04-18 04:01 741K
20260418T00Z_MSC_GDPS_WindU_IsbL-0050_LatLon0.15_PT030H.grib2 2026-04-18 04:01 709K
20260418T00Z_MSC_GDPS_WindU_IsbL-0100_LatLon0.15_PT030H.grib2 2026-04-18 04:01 924K
20260418T00Z_MSC_GDPS_WindU_IsbL-0150_LatLon0.15_PT030H.grib2 2026-04-18 04:01 1.0M
20260418T00Z_MSC_GDPS_WindU_IsbL-0175_LatLon0.15_PT030H.grib2 2026-04-18 04:01 1.0M
20260418T00Z_MSC_GDPS_WindU_IsbL-0200_LatLon0.15_PT030H.grib2 2026-04-18 04:01 1.1M
20260418T00Z_MSC_GDPS_WindU_IsbL-0225_LatLon0.15_PT030H.grib2 2026-04-18 04:01 1.1M
20260418T00Z_MSC_GDPS_WindU_IsbL-0250_LatLon0.15_PT030H.grib2 2026-04-18 04:01 855K
20260418T00Z_MSC_GDPS_WindU_IsbL-0275_LatLon0.15_PT030H.grib2 2026-04-18 04:01 881K
20260418T00Z_MSC_GDPS_WindU_IsbL-0300_LatLon0.15_PT030H.grib2 2026-04-18 04:01 872K
20260418T00Z_MSC_GDPS_WindU_IsbL-0350_LatLon0.15_PT030H.grib2 2026-04-18 04:01 885K
20260418T00Z_MSC_GDPS_WindU_IsbL-0400_LatLon0.15_PT030H.grib2 2026-04-18 04:01 885K
20260418T00Z_MSC_GDPS_WindU_IsbL-0450_LatLon0.15_PT030H.grib2 2026-04-18 04:01 1.1M
20260418T00Z_MSC_GDPS_WindU_IsbL-0500_LatLon0.15_PT030H.grib2 2026-04-18 04:01 1.1M
20260418T00Z_MSC_GDPS_WindU_IsbL-0550_LatLon0.15_PT030H.grib2 2026-04-18 04:01 1.1M
20260418T00Z_MSC_GDPS_WindU_IsbL-0600_LatLon0.15_PT030H.grib2 2026-04-18 04:01 1.1M
20260418T00Z_MSC_GDPS_WindU_IsbL-0650_LatLon0.15_PT030H.grib2 2026-04-18 04:01 1.2M
20260418T00Z_MSC_GDPS_WindU_IsbL-0700_LatLon0.15_PT030H.grib2 2026-04-18 04:01 1.2M
20260418T00Z_MSC_GDPS_WindU_IsbL-0750_LatLon0.15_PT030H.grib2 2026-04-18 04:01 1.3M
20260418T00Z_MSC_GDPS_WindU_IsbL-0800_LatLon0.15_PT030H.grib2 2026-04-18 04:01 1.3M
20260418T00Z_MSC_GDPS_WindU_IsbL-0850_LatLon0.15_PT030H.grib2 2026-04-18 04:01 1.4M
20260418T00Z_MSC_GDPS_WindU_IsbL-0875_LatLon0.15_PT030H.grib2 2026-04-18 04:01 1.4M
20260418T00Z_MSC_GDPS_WindU_IsbL-0900_LatLon0.15_PT030H.grib2 2026-04-18 04:01 1.4M
20260418T00Z_MSC_GDPS_WindU_IsbL-0925_LatLon0.15_PT030H.grib2 2026-04-18 04:01 1.4M
20260418T00Z_MSC_GDPS_WindU_IsbL-0950_LatLon0.15_PT030H.grib2 2026-04-18 04:01 1.4M
20260418T00Z_MSC_GDPS_WindU_IsbL-0970_LatLon0.15_PT030H.grib2 2026-04-18 04:01 1.4M
20260418T00Z_MSC_GDPS_WindU_IsbL-0985_LatLon0.15_PT030H.grib2 2026-04-18 04:01 1.4M
20260418T00Z_MSC_GDPS_WindU_IsbL-1000_LatLon0.15_PT030H.grib2 2026-04-18 04:01 1.7M
20260418T00Z_MSC_GDPS_WindU_IsbL-1015_LatLon0.15_PT030H.grib2 2026-04-18 04:01 1.6M
20260418T00Z_MSC_GDPS_WindV_AGL-10m_LatLon0.15_PT030H.grib2 2026-04-18 04:01 1.6M
20260418T00Z_MSC_GDPS_WindV_AGL-120m_LatLon0.15_PT030H.grib2 2026-04-18 04:01 968K
20260418T00Z_MSC_GDPS_WindV_AGL-40m_LatLon0.15_PT030H.grib2 2026-04-18 04:01 1.2M
20260418T00Z_MSC_GDPS_WindV_AGL-80m_LatLon0.15_PT030H.grib2 2026-04-18 04:01 967K
20260418T00Z_MSC_GDPS_WindV_IsbL-0001_LatLon0.15_PT030H.grib2 2026-04-18 04:01 701K
20260418T00Z_MSC_GDPS_WindV_IsbL-0005_LatLon0.15_PT030H.grib2 2026-04-18 04:01 784K
20260418T00Z_MSC_GDPS_WindV_IsbL-0010_LatLon0.15_PT030H.grib2 2026-04-18 04:01 632K
20260418T00Z_MSC_GDPS_WindV_IsbL-0020_LatLon0.15_PT030H.grib2 2026-04-18 04:01 856K
20260418T00Z_MSC_GDPS_WindV_IsbL-0030_LatLon0.15_PT030H.grib2 2026-04-18 04:01 856K
20260418T00Z_MSC_GDPS_WindV_IsbL-0050_LatLon0.15_PT030H.grib2 2026-04-18 04:01 908K
20260418T00Z_MSC_GDPS_WindV_IsbL-0100_LatLon0.15_PT030H.grib2 2026-04-18 04:01 846K
20260418T00Z_MSC_GDPS_WindV_IsbL-0150_LatLon0.15_PT030H.grib2 2026-04-18 04:01 1.0M
20260418T00Z_MSC_GDPS_WindV_IsbL-0175_LatLon0.15_PT030H.grib2 2026-04-18 04:01 1.0M
20260418T00Z_MSC_GDPS_WindV_IsbL-0200_LatLon0.15_PT030H.grib2 2026-04-18 04:01 841K
20260418T00Z_MSC_GDPS_WindV_IsbL-0225_LatLon0.15_PT030H.grib2 2026-04-18 04:01 908K
20260418T00Z_MSC_GDPS_WindV_IsbL-0250_LatLon0.15_PT030H.grib2 2026-04-18 04:01 908K
20260418T00Z_MSC_GDPS_WindV_IsbL-0275_LatLon0.15_PT030H.grib2 2026-04-18 04:01 934K
20260418T00Z_MSC_GDPS_WindV_IsbL-0300_LatLon0.15_PT030H.grib2 2026-04-18 04:01 925K
20260418T00Z_MSC_GDPS_WindV_IsbL-0350_LatLon0.15_PT030H.grib2 2026-04-18 04:01 938K
20260418T00Z_MSC_GDPS_WindV_IsbL-0400_LatLon0.15_PT030H.grib2 2026-04-18 04:01 878K
20260418T00Z_MSC_GDPS_WindV_IsbL-0450_LatLon0.15_PT030H.grib2 2026-04-18 04:01 877K
20260418T00Z_MSC_GDPS_WindV_IsbL-0500_LatLon0.15_PT030H.grib2 2026-04-18 04:01 879K
20260418T00Z_MSC_GDPS_WindV_IsbL-0550_LatLon0.15_PT030H.grib2 2026-04-18 04:01 1.1M
20260418T00Z_MSC_GDPS_WindV_IsbL-0600_LatLon0.15_PT030H.grib2 2026-04-18 04:01 1.1M
20260418T00Z_MSC_GDPS_WindV_IsbL-0650_LatLon0.15_PT030H.grib2 2026-04-18 04:01 1.2M
20260418T00Z_MSC_GDPS_WindV_IsbL-0700_LatLon0.15_PT030H.grib2 2026-04-18 04:01 1.2M
20260418T00Z_MSC_GDPS_WindV_IsbL-0750_LatLon0.15_PT030H.grib2 2026-04-18 04:01 1.3M
20260418T00Z_MSC_GDPS_WindV_IsbL-0800_LatLon0.15_PT030H.grib2 2026-04-18 04:01 1.3M
20260418T00Z_MSC_GDPS_WindV_IsbL-0850_LatLon0.15_PT030H.grib2 2026-04-18 04:01 1.4M
20260418T00Z_MSC_GDPS_WindV_IsbL-0875_LatLon0.15_PT030H.grib2 2026-04-18 04:01 1.4M
20260418T00Z_MSC_GDPS_WindV_IsbL-0900_LatLon0.15_PT030H.grib2 2026-04-18 04:01 1.4M
20260418T00Z_MSC_GDPS_WindV_IsbL-0925_LatLon0.15_PT030H.grib2 2026-04-18 04:01 1.4M
20260418T00Z_MSC_GDPS_WindV_IsbL-0950_LatLon0.15_PT030H.grib2 2026-04-18 04:01 1.4M
20260418T00Z_MSC_GDPS_WindV_IsbL-0970_LatLon0.15_PT030H.grib2 2026-04-18 04:01 1.4M
20260418T00Z_MSC_GDPS_WindV_IsbL-0985_LatLon0.15_PT030H.grib2 2026-04-18 04:01 1.4M
20260418T00Z_MSC_GDPS_WindV_IsbL-1000_LatLon0.15_PT030H.grib2 2026-04-18 04:01 1.7M
20260418T00Z_MSC_GDPS_WindV_IsbL-1015_LatLon0.15_PT030H.grib2 2026-04-18 04:01 1.6M